Portsmouth, NH

9:01 PM EDT on March 27, 2017 (GMT -0400)
Pease International Tradeport

Weather History for KPSM - March, 2013

Change the Weather History Date:

Wednesday, March 27, 2013

  Actual Average Record
Temperature  
Mean Temperature 42 °F -  
Max Temperature 54 °F 45 °F 77 °F (1998)
Min Temperature 31 °F 30 °F 11 °F (1975)
Degree Days  
Heating Degree Days 24    
Moisture  
Dew Point 25 °F    
Average Humidity 55    
Maximum Humidity 88    
Minimum Humidity 29    
Precipitation  
Precipitation 0.00 in - - ()
Sea Level Pressure  
Sea Level Pressure 29.78 in    
Wind  
Wind Speed 9 mph (WNW)    
Max Wind Speed 17 mph    
Max Gust Speed 23 mph    
Visibility 9 miles    
Events Rain    
Averages and records for this station are not official NWS values.
T = Trace of Precipitation, MM = Missing Value Source: NWS Daily Summary

Daily Weather History Graph

Daily Weather History Graph

Search for Another Location

Airport or City:

Trip Planner

Search our weather history database for the weather conditions in past years. The results will help you decide how hot, cold, wet, or windy it might be!

Date:

Astronomy

Mar. 27, 2013 Rise Set
Actual Time 6:33 AM EDT 7:04 PM EDT
Civil Twilight 6:05 AM EDT 7:32 PM EDT
Nautical Twilight 5:31 AM EDT 8:06 PM EDT
Astronomical Twilight 4:56 AM EDT 8:41 PM EDT
Moon 7:46 PM EDT (3/27) 6:21 AM EDT (3/27)
Length of Visible Light 13h 27m
Length of Day
12h 30m
Full, 100% of the Moon is Illuminated
Mar 27
Full
Apr 3
Last Quarter
Apr 10
New
Apr 18
First Quarter
Apr 25
Full

Hourly Weather History & Observations

Time (EDT) Temp. Windchill Dew Point Humidity Pressure Visibility Wind Dir Wind Speed Gust Speed Precip Events Conditions
12:55 AM 34.3 °F 30.2 °F 19.6 °F 55% 29.76 in 10.0 mi West 4.6 mph - N/A   Clear
1:55 AM 33.6 °F 28.4 °F 21.9 °F 62% 29.76 in 10.0 mi West 5.8 mph - N/A   Clear
2:55 AM 32.7 °F 27.3 °F 21.6 °F 64% 29.75 in 10.0 mi West 5.8 mph - N/A   Clear
3:55 AM 32.5 °F 28.1 °F 21.4 °F 64% 29.75 in 10.0 mi WSW 4.6 mph - N/A   Clear
4:55 AM 32.0 °F 26.4 °F 21.2 °F 64% 29.75 in 10.0 mi West 5.8 mph - N/A   Clear
5:55 AM 32.5 °F 27.1 °F 21.4 °F 64% 29.75 in 10.0 mi West 5.8 mph - N/A   Scattered Clouds
6:55 AM 31.8 °F 24.6 °F 21.7 °F 66% 29.76 in 10.0 mi WSW 8.1 mph - N/A   Partly Cloudy
7:55 AM 36.7 °F 32.0 °F 22.6 °F 57% 29.77 in 10.0 mi West 5.8 mph - N/A   Clear
8:55 AM 42.3 °F 36.8 °F 22.1 °F 45% 29.77 in 10.0 mi West 9.2 mph - N/A   Clear
9:55 AM 45.9 °F 40.4 °F 21.7 °F 38% 29.77 in 10.0 mi West 11.5 mph - N/A   Clear
10:55 AM 49.3 °F - 22.5 °F 35% 29.76 in 10.0 mi WNW 11.5 mph - N/A   Clear
11:55 AM 51.4 °F - 22.5 °F 32% 29.74 in 10.0 mi NW 13.8 mph 18.4 mph N/A   Partly Cloudy
12:55 PM 51.6 °F - 21.7 °F 31% 29.73 in 10.0 mi NW 11.5 mph - N/A   Partly Cloudy
1:55 PM 52.3 °F - 20.8 °F 29% 29.72 in 10.0 mi WNW 12.7 mph 18.4 mph N/A   Scattered Clouds
2:55 PM 52.9 °F - 21.0 °F 29% 29.72 in 10.0 mi NNW 15.0 mph - N/A   Mostly Cloudy
3:55 PM 52.5 °F - 21.9 °F 30% 29.73 in 10.0 mi NW 17.3 mph 23.0 mph N/A   Mostly Cloudy
4:55 PM 49.8 °F - 23.2 °F 35% 29.75 in 10.0 mi NNW 15.0 mph 21.9 mph N/A   Overcast
5:55 PM 47.5 °F - 24.4 °F 41% 29.78 in 10.0 mi WNW 12.7 mph 21.9 mph N/A   Overcast
6:55 PM 44.4 °F 37.2 °F 27.5 °F 52% 29.81 in 10.0 mi NW 16.1 mph - N/A   Overcast
7:55 PM 42.3 °F 35.5 °F 30.6 °F 63% 29.83 in 8.0 mi NW 12.7 mph - 0.00 in Rain Light Rain Showers
8:38 PM 41.0 °F 32.8 °F 32.0 °F 70% 29.85 in 7.0 mi NW 16.1 mph - N/A Rain Light Rain Showers
8:55 PM 40.5 °F 33.2 °F 33.1 °F 75% 29.86 in 7.0 mi NW 12.7 mph - 0.00 in Rain Light Rain
9:40 PM 39.2 °F 33.0 °F 33.8 °F 81% 29.86 in 7.0 mi NW 9.2 mph - N/A Rain Light Rain
9:55 PM 39.4 °F 33.2 °F 33.3 °F 79% 29.86 in 7.0 mi NW 9.2 mph - 0.00 in Rain Light Rain
10:55 PM 38.8 °F 31.2 °F 34.0 °F 83% 29.87 in 7.0 mi NNW 12.7 mph - 0.00 in Rain Light Rain
11:55 PM 37.9 °F 31.5 °F 34.7 °F 88% 29.87 in 7.0 mi NW 9.2 mph - 0.00 in Rain Light Rain